WP4NYS-13 Weather Reports


time (UTC)temp
C
wind
direction
speed
KPH
gust
KPH
rain 1hr
cm
rain 24hr
cm
rain mn
cm
humidity
%
barometer
mb
20260510150651 28 246 1.6 6.4 0.00 0.00 0.00 78 1017.6
20260510150146 28 129 0.0 3.2 0.00 0.00 0.00 81 1017.6
20260510145643 27 161 0.0 1.6 0.00 0.00 0.00 83 1017.6
20260510145140 26 180 0.0 3.2 0.00 0.00 0.00 86 1017.7
20260510144635 26 27 0.0 4.8 0.00 0.00 0.00 85 1017.4
20260510144132 26 245 1.6 4.8 0.00 0.00 0.00 85 1017.6
20260510143627 26 279 0.0 0.0 0.00 0.00 0.00 88 1017.6
20260510143124 26 280 0.0 3.2 0.00 0.00 0.00 87 1017.6
20260510142621 26 308 1.6 4.8 0.00 0.00 0.00 85 1017.7
20260510142118 26 133 0.0 0.0 0.00 0.00 0.00 89 1017.5
20260510141614 25 79 1.6 1.6 0.00 0.00 0.00 90 1017.4
20260510141113 25 252 3.2 3.2 0.00 0.00 0.00 90 1017.2
20260510140609 24 264 1.6 3.2 0.00 0.00 0.00 91 1017.2
20260510140108 24 254 0.0 3.2 0.00 0.00 0.00 91 1017.4
20260510135604 23 249 0.0 1.6 0.00 0.00 0.00 93 1017.3
20260510135100 23 162 0.0 0.0 0.00 0.00 0.00 94 1017.4
20260510134557 23 140 0.0 1.6 0.00 0.00 0.00 96 1017.6
20260510134054 23 180 0.0 1.6 0.00 0.00 0.00 97 1017.1
20260510133550 23 194 0.0 1.6 0.00 0.00 0.00 98 1017.3
20260510133046 23 305 1.6 3.2 0.00 0.00 0.00 98 1017.4
20260510132543 23 186 0.0 0.0 0.00 0.00 0.00 98 1017.3
20260510132040 22 207 0.0 0.0 0.00 0.00 0.00 99 1017.1
20260510131538 22 88 0.0 0.0 0.00 0.00 0.00 99 1017.2
20260510131035 22 118 0.0 0.0 0.00 0.00 0.00 99 1017.1
20260510130531 22 246 0.0 0.0 0.00 0.00 0.00 99 1017.4
20260510130029 22 113 0.0 0.0 0.00 0.00 0.00 99 1017.3
20260510125525 22 122 0.0 0.0 0.00 0.00 0.00 99 1017.0
20260510125021 22 122 0.0 0.0 0.00 0.00 0.00 99 1017.0
20260510124518 22 119 0.0 0.0 0.00 0.00 0.00 99 1017.3
20260510124015 22 119 0.0 0.0 0.00 0.00 0.00 99 1017.0
20260510123510 21 119 0.0 0.0 0.00 0.00 0.00 99 1016.8
20260510123006 21 119 0.0 0.0 0.00 0.00 0.00 99 1016.8
20260510122502 21 119 0.0 0.0 0.00 0.00 0.00 99 1017.0
20260510121958 21 119 0.0 0.0 0.00 0.00 0.00 99 1016.6
20260510121455 21 119 0.0 0.0 0.00 0.00 0.00 99 1016.5
20260510120953 21 119 0.0 0.0 0.00 0.00 0.00 99 1016.4
20260510120450 21 119 0.0 0.0 0.00 0.00 0.00 99 1016.4
20260510115945 21 119 0.0 0.0 0.00 0.00 0.00 99 1016.3
20260510115443 20 119 0.0 0.0 0.00 0.00 0.00 99 1016.4
20260510114939 20 119 0.0 0.0 0.00 0.00 0.00 99 1016.3
20260510114436 20 132 0.0 0.0 0.00 0.00 0.00 99 1016.3
20260510113931 20 132 0.0 0.0 0.00 0.00 0.00 99 1016.1
20260510113427 20 132 0.0 0.0 0.00 0.00 0.00 99 1016.0
20260510112925 20 178 0.0 0.0 0.00 0.00 0.00 99 1015.9
20260510112422 20 180 0.0 0.0 0.00 0.00 0.00 98 1015.9
20260510111918 20 117 0.0 0.0 0.00 0.00 0.00 99 1015.9
20260510111414 20 117 0.0 0.0 0.00 0.00 0.00 98 1015.7
20260510110910 20 117 0.0 0.0 0.00 0.00 0.00 98 1015.7
20260510110406 20 117 0.0 0.0 0.00 0.00 0.00 98 1015.5
20260510105903 20 117 0.0 0.0 0.00 0.00 0.00 98 1015.6
20260510105402 20 117 0.0 0.0 0.00 0.00 0.00 98 1015.5
20260510104858 20 117 0.0 0.0 0.00 0.00 0.00 98 1015.3
20260510104356 20 117 0.0 0.0 0.00 0.00 0.00 98 1015.3
20260510103852 20 85 0.0 0.0 0.00 0.00 0.00 98 1015.3
20260510103349 20 85 0.0 0.0 0.00 0.00 0.00 98 1015.1
20260510102845 20 85 0.0 0.0 0.00 0.00 0.00 98 1015.3
20260510102340 20 85 0.0 0.0 0.00 0.00 0.00 98 1015.0
20260510101838 20 85 0.0 0.0 0.00 0.00 0.00 98 1015.1
20260510101336 20 85 0.0 0.0 0.00 0.00 0.00 98 1014.9
20260510100832 20 85 0.0 0.0 0.00 0.00 0.00 98 1015.0
20260510100330 20 85 0.0 0.0 0.00 0.00 0.00 98 1014.9
20260510095826 20 85 0.0 0.0 0.00 0.00 0.00 98 1014.7
20260510095321 20 85 0.0 0.0 0.00 0.00 0.00 98 1014.6
20260510094820 20 85 0.0 0.0 0.00 0.00 0.00 98 1014.7
20260510094316 20 85 0.0 0.0 0.00 0.00 0.00 98 1014.7
20260510093812 20 85 0.0 0.0 0.00 0.00 0.00 98 1014.8
20260510093309 20 85 0.0 0.0 0.00 0.00 0.00 98 1014.7
20260510092805 20 85 0.0 0.0 0.00 0.00 0.00 98 1015.0
20260510092301 20 85 0.0 0.0 0.00 0.00 0.00 98 1014.4
20260510091756 20 80 0.0 0.0 0.00 0.00 0.00 98 1014.3
20260510091254 20 80 0.0 0.0 0.00 0.00 0.00 98 1014.5
20260510090750 20 83 0.0 0.0 0.00 0.00 0.00 98 1014.6
20260510090248 20 59 0.0 0.0 0.00 0.00 0.00 98 1014.5
20260510085743 20 59 0.0 0.0 0.00 0.00 0.00 98 1014.3
20260510085237 20 59 0.0 0.0 0.00 0.00 0.00 98 1014.3
20260510084734 20 59 0.0 0.0 0.00 0.00 0.00 98 1014.2
20260510084231 20 59 0.0 0.0 0.00 0.00 0.00 98 1014.2
20260510083727 20 69 0.0 0.0 0.00 0.00 0.00 98 1014.0
20260510083224 20 69 0.0 0.0 0.00 0.00 0.00 98 1013.7
20260510082720 20 69 0.0 0.0 0.00 0.00 0.00 98 1014.2
20260510082217 20 69 0.0 0.0 0.00 0.00 0.00 98 1013.9
20260510081716 20 69 0.0 0.0 0.00 0.00 0.00 98 1014.1
20260510081213 20 69 0.0 0.0 0.00 0.00 0.00 98 1014.2
20260510080713 20 69 0.0 0.0 0.00 0.00 0.00 98 1014.0
20260510080209 20 69 0.0 0.0 0.00 0.00 0.00 98 1013.9
20260510075706 20 69 0.0 0.0 0.00 0.00 0.00 98 1013.8
20260510075204 20 69 0.0 0.0 0.00 0.00 0.00 98 1013.8
20260510074700 20 69 0.0 0.0 0.00 0.00 0.00 98 1014.1
20260510074156 20 69 0.0 0.0 0.00 0.00 0.00 98 1013.9
20260510073653 20 69 0.0 0.0 0.00 0.00 0.00 98 1014.3
20260510073149 20 69 0.0 0.0 0.00 0.00 0.00 98 1014.0
20260510072645 20 70 0.0 0.0 0.00 0.00 0.00 98 1014.1
20260510072142 20 70 0.0 0.0 0.00 0.00 0.00 98 1014.1
20260510071638 20 70 0.0 0.0 0.00 0.00 0.00 98 1014.0
20260510071135 20 70 0.0 0.0 0.00 0.00 0.00 98 1014.3
20260510070633 20 70 0.0 0.0 0.00 0.00 0.00 98 1014.2
20260510070130 20 70 0.0 0.0 0.00 0.00 0.00 98 1013.9
20260510065626 20 70 0.0 0.0 0.00 0.00 0.00 98 1013.9
20260510065122 20 70 0.0 0.0 0.00 0.00 0.00 98 1013.9
20260510064618 20 70 0.0 0.0 0.00 0.00 0.00 98 1013.8
20260510064115 20 70 0.0 0.0 0.00 0.00 0.00 98 1014.2
20260510063612 20 70 0.0 0.0 0.00 0.00 0.00 98 1014.2
20260510063109 20 70 0.0 0.0 0.00 0.00 0.00 98 1014.2
20260510062605 20 77 0.0 0.0 0.00 0.00 0.00 98 1014.2
20260510062101 20 88 0.0 0.0 0.00 0.00 0.00 98 1014.0
20260510061557 20 88 0.0 0.0 0.00 0.00 0.00 98 1014.4
20260510061054 20 96 0.0 0.0 0.00 0.00 0.00 98 1014.3
20260510060550 20 129 0.0 0.0 0.00 0.00 0.00 98 1014.5
20260510060046 20 125 0.0 0.0 0.00 0.00 0.00 98 1014.7
20260510055542 20 122 0.0 0.0 0.00 0.00 0.00 98 1014.7
20260510055041 20 119 0.0 0.0 0.00 0.00 0.00 98 1014.5
20260510054536 20 104 0.0 0.0 0.00 0.00 0.00 98 1014.5
20260510054031 20 105 0.0 0.0 0.00 0.00 0.00 98 1014.6
20260510053526 20 172 0.0 0.0 0.00 0.00 0.00 98 1014.7
20260510053024 20 112 0.0 0.0 0.00 0.00 0.00 98 1014.7
20260510052520 20 174 0.0 1.6 0.00 0.00 0.00 98 1014.7
20260510052016 20 178 0.0 0.0 0.00 0.00 0.00 98 1014.6
20260510051511 20 85 1.6 1.6 0.00 0.00 0.00 98 1014.8
20260510051008 20 113 0.0 0.0 0.00 0.00 0.00 98 1014.8
20260510050506 20 99 0.0 1.6 0.00 0.00 0.00 98 1014.9
20260510050003 20 128 0.0 1.6 0.00 0.00 0.00 98 1014.7
20260510045500 20 108 0.0 0.0 0.00 0.00 0.00 98 1015.2
20260510044956 20 113 0.0 1.6 0.00 0.00 0.00 98 1015.1
20260510044453 20 84 0.0 0.0 0.00 0.00 0.00 98 1015.3
20260510043950 20 99 0.0 0.0 0.00 0.00 0.00 98 1015.6
20260510043445 20 100 0.0 0.0 0.00 0.00 0.00 98 1015.5
20260510042944 20 89 0.0 0.0 0.00 0.00 0.00 98 1015.3
20260510042440 20 89 0.0 0.0 0.00 0.00 0.00 98 1015.8
20260510041936 20 93 0.0 0.0 0.00 0.00 0.00 98 1015.6
20260510041433 20 93 0.0 0.0 0.00 0.00 0.00 98 1015.9
20260510040931 20 93 0.0 0.0 0.00 0.00 0.00 98 1015.9
20260510040427 20 104 0.0 0.0 0.00 0.00 0.00 98 1015.7
20260510035923 20 105 0.0 0.0 0.00 1.19 1.19 98 1015.9
20260510035419 20 105 0.0 0.0 0.00 1.19 1.19 98 1015.8
20260510034919 20 105 0.0 0.0 0.00 1.19 1.19 98 1016.0
20260510034418 20 105 0.0 0.0 0.00 1.19 1.19 98 1016.0
20260510033914 20 105 0.0 0.0 0.00 1.19 1.19 98 1015.8
20260510033410 20 108 0.0 0.0 0.00 1.19 1.19 97 1015.7
20260510032907 20 108 0.0 0.0 0.00 1.19 1.19 98 1015.7
20260510032404 20 108 0.0 0.0 0.00 1.19 1.19 97 1015.7
20260510031859 20 108 0.0 0.0 0.00 1.19 1.19 97 1015.8
20260510031355 20 108 0.0 0.0 0.00 1.19 1.19 97 1015.9
20260510030854 20 108 0.0 0.0 0.00 1.19 1.19 97 1016.1
20260510030351 20 108 0.0 0.0 0.00 1.19 1.19 97 1015.9
20260510025849 20 108 0.0 0.0 0.00 1.19 1.19 97 1015.6
20260510025346 20 108 0.0 0.0 0.00 1.19 1.19 97 1015.7
20260510024843 20 108 0.0 0.0 0.00 1.19 1.19 97 1015.5
20260510024340 20 108 0.0 0.0 0.00 1.19 1.19 97 1015.8
20260510023836 20 83 0.0 0.0 0.00 1.19 1.19 97 1015.8
20260510023332 20 83 0.0 0.0 0.00 1.19 1.19 97 1015.3
20260510022830 20 83 0.0 0.0 0.00 1.19 1.19 97 1015.6
20260510022329 20 83 0.0 0.0 0.00 1.19 1.19 97 1015.7
20260510021829 20 83 0.0 0.0 0.00 1.19 1.19 97 1015.4
20260510021327 20 83 0.0 0.0 0.00 1.19 1.19 97 1015.1
20260510020823 20 83 0.0 0.0 0.00 1.19 1.19 97 1015.1
20260510020323 20 83 0.0 0.0 0.00 1.19 1.19 97 1015.2
20260510015819 20 82 0.0 0.0 0.00 1.19 1.19 97 1014.9
20260510015315 20 221 0.0 0.0 0.00 1.19 1.19 97 1015.2
20260510014816 20 221 0.0 0.0 0.00 1.19 1.19 97 1014.7
20260510014313 20 234 0.0 0.0 0.00 1.19 1.19 97 1014.4
20260510013809 20 88 0.0 0.0 0.00 1.19 1.19 97 1014.3
20260510013305 20 153 0.0 0.0 0.00 1.19 1.19 97 1014.8
20260510012800 20 253 0.0 0.0 0.00 1.19 1.19 97 1014.7
20260510012255 20 253 0.0 0.0 0.00 1.19 1.19 97 1014.3
20260510011754 20 253 0.0 0.0 0.00 1.19 1.19 97 1014.3
20260510011250 20 253 0.0 0.0 0.00 1.19 1.19 97 1014.3
20260510010748 20 255 0.0 0.0 0.00 1.19 1.19 97 1014.3
20260510010244 20 255 0.0 0.0 0.00 1.19 1.19 97 1014.4
20260510005741 20 255 0.0 0.0 0.00 1.19 1.19 97 1014.6
20260510005237 20 107 0.0 0.0 0.00 1.19 1.19 97 1014.3
20260510004735 20 107 0.0 0.0 0.00 1.19 1.19 97 1014.2
20260510004233 20 86 0.0 0.0 0.00 1.19 1.19 97 1014.0
20260510003730 20 86 0.0 0.0 0.00 1.19 1.19 97 1014.0
20260510003226 20 86 0.0 0.0 0.00 1.19 1.19 97 1013.7
20260510002725 20 86 0.0 0.0 0.00 1.19 1.19 97 1014.0
20260510002223 20 86 0.0 0.0 0.00 1.19 1.19 97 1014.0
20260510001719 20 166 0.0 0.0 0.00 1.19 1.19 97 1014.5
20260510001218 20 166 0.0 0.0 0.00 1.19 1.19 97 1014.3
20260510000714 20 77 0.0 0.0 0.13 1.19 1.19 96 1014.0
20260510000211 20 106 0.0 0.0 0.13 1.19 1.19 96 1014.1
20260509235708 20 106 0.0 0.0 0.00 1.17 1.17 96 1014.3
20260509235204 21 119 0.0 0.0 0.00 1.17 1.17 96 1014.3
20260509234700 21 125 0.0 0.0 0.00 1.17 1.17 96 1014.2
20260509234157 21 55 0.0 0.0 0.00 1.17 1.17 96 1013.8
20260509233655 21 85 0.0 0.0 0.00 1.17 1.17 96 1014.2
20260509233153 21 278 0.0 0.0 0.00 1.17 1.17 96 1014.0
20260509232649 21 341 0.0 0.0 0.36 1.17 1.17 96 1014.2
20260509232146 21 8 0.0 1.6 0.48 1.17 1.17 96 1014.2
20260509231642 21 62 0.0 0.0 0.13 1.12 1.12 96 1014.4
20260509231140 21 88 0.0 0.0 0.18 1.09 1.09 96 1014.5
20260509230637 21 51 0.0 0.0 0.30 1.09 1.09 96 1014.7
20260509230134 21 51 0.0 1.6 0.43 1.07 1.07 96 1014.9
20260509225629 21 22 0.0 0.0 0.13 1.02 1.02 95 1015.1
20260509225125 21 53 0.0 0.0 0.30 0.99 0.99 95 1014.9
20260509224620 21 40 0.0 0.0 0.79 0.99 0.99 95 1015.4
20260509224118 21 20 0.0 3.2 0.48 0.91 0.91 95 1014.8
20260509223615 21 323 0.0 1.6 0.30 0.86 0.86 94 1015.1
20260509223112 21 328 0.0 0.0 0.30 0.84 0.84 94 1015.0
20260509222608 21 312 0.0 3.2 0.18 0.81 0.81 94 1015.0
20260509222104 21 296 0.0 0.0 0.00 0.79 0.79 94 1014.9
20260509221600 21 282 0.0 0.0 0.00 0.79 0.79 94 1014.7
20260509221056 22 23 0.0 0.0 0.00 0.79 0.79 93 1014.6
20260509220552 22 126 0.0 0.0 0.13 0.79 0.79 93 1014.6
20260509220048 22 312 0.0 0.0 0.13 0.79 0.79 93 1014.3
20260509215544 22 303 0.0 1.6 0.00 0.76 0.76 92 1014.4
20260509215042 22 304 1.6 1.6 0.00 0.76 0.76 92 1014.6
20260509214539 22 337 0.0 0.0 0.00 0.76 0.76 92 1014.3
20260509214035 22 337 0.0 0.0 0.00 0.76 0.76 92 1014.3
20260509213531 22 283 0.0 1.6 0.00 0.76 0.76 92 1014.2
20260509213028 22 2 0.0 1.6 0.00 0.76 0.76 93 1014.0
20260509212526 22 352 0.0 1.6 0.00 0.76 0.76 93 1013.8
20260509212023 22 29 0.0 0.0 0.00 0.76 0.76 93 1014.0
20260509211518 22 2 0.0 1.6 0.00 0.76 0.76 93 1013.9
20260509211015 22 41 0.0 0.0 0.00 0.76 0.76 93 1013.9
20260509210512 22 309 0.0 0.0 0.00 0.76 0.76 93 1014.3
20260509210008 22 93 0.0 0.0 0.00 0.76 0.76 93 1014.0
20260509205502 22 215 0.0 0.0 0.00 0.76 0.76 93 1013.8
20260509204958 22 343 0.0 0.0 0.00 0.76 0.76 93 1014.0
20260509204454 22 189 0.0 0.0 0.00 0.76 0.76 94 1013.8
20260509203951 22 341 0.0 1.6 0.00 0.76 0.76 93 1013.9
20260509203447 22 12 0.0 1.6 0.00 0.76 0.76 93 1013.9
20260509202945 22 335 1.6 3.2 0.00 0.76 0.76 92 1013.6
20260509202441 22 316 3.2 3.2 0.00 0.76 0.76 91 1013.7
20260509201936 22 32 0.0 3.2 0.00 0.76 0.76 91 1013.6
20260509201431 23 311 3.2 6.4 0.00 0.76 0.76 92 1013.6
20260509200928 23 345 1.6 14.5 0.00 0.76 0.76 91 1013.5
20260509200428 24 21 4.8 4.8 0.00 0.76 0.76 94 1013.6
20260509195925 24 315 0.0 3.2 0.00 0.76 0.76 94 1013.5
20260509195421 24 77 0.0 1.6 0.00 0.76 0.76 95 1013.6
20260509194920 24 59 0.0 1.6 0.00 0.76 0.76 95 1013.7
20260509194417 24 311 1.6 3.2 0.00 0.76 0.76 95 1013.8
20260509193914 24 264 1.6 1.6 0.00 0.76 0.76 95 1013.7
20260509193413 24 9 1.6 1.6 0.00 0.76 0.76 96 1013.6
20260509192909 23 6 0.0 0.0 0.00 0.76 0.76 96 1013.5
20260509192406 23 33 0.0 0.0 0.00 0.76 0.76 96 1013.6
20260509191901 23 66 0.0 0.0 0.00 0.76 0.76 95 1013.6
20260509191357 23 342 0.0 1.6 0.18 0.76 0.76 96 1013.9
20260509190853 23 267 0.0 4.8 0.18 0.76 0.76 95 1014.0
20260509190350 23 105 0.0 0.0 0.89 0.74 0.74 95 1013.8
20260509185848 23 138 0.0 0.0 2.11 0.74 0.74 94 1014.1
20260509185344 23 164 0.0 1.6 1.80 0.51 0.51 94 1014.3
20260509184841 23 165 0.0 0.0 0.79 0.33 0.33 93 1014.3
20260509184338 23 19 0.0 0.0 0.00 0.20 0.20 93 1014.4
20260509183835 23 63 0.0 0.0 0.00 0.20 0.20 92 1014.0
20260509183330 23 343 0.0 0.0 0.00 0.20 0.20 92 1014.2
20260509182826 23 349 0.0 0.0 0.18 0.20 0.20 92 1014.1
20260509182324 23 287 0.0 0.0 0.18 0.20 0.20 92 1014.1
20260509181821 23 35 0.0 0.0 0.00 0.18 0.18 92 1014.0
20260509181318 23 262 0.0 4.8 0.43 0.18 0.18 91 1013.9
20260509180815 24 16 0.0 1.6 0.61 0.18 0.18 91 1014.2
20260509180311 24 323 0.0 4.8 0.30 0.10 0.10 90 1014.1
20260509175808 24 312 0.0 0.0 0.00 0.05 0.05 90 1014.2
20260509175306 24 349 0.0 0.0 0.00 0.05 0.05 89 1014.1
20260509174800 25 274 0.0 0.0 0.00 0.05 0.05 89 1014.3
20260509174256 25 23 0.0 0.0 0.00 0.05 0.05 88 1014.0
20260509173752 25 24 0.0 1.6 0.18 0.05 0.05 85 1014.1
20260509173248 26 300 0.0 3.2 0.30 0.05 0.05 81 1014.3
20260509172744 27 30 0.0 1.6 0.13 0.03 0.03 76 1014.2
20260509172241 28 268 1.6 3.2 0.00 0.00 0.00 69 1014.0
20260509171736 28 271 1.6 1.6 0.00 0.00 0.00 68 1014.1
20260509171233 28 184 0.0 1.6 0.00 0.00 0.00 70 1014.2
20260509170730 28 269 1.6 3.2 0.00 0.00 0.00 69 1014.1
20260509170225 28 214 1.6 3.2 0.00 0.00 0.00 69 1014.3
20260509165724 28 161 0.0 1.6 0.00 0.00 0.00 70 1014.4
20260509165219 28 265 3.2 9.7 0.00 0.00 0.00 70 1014.2
20260509164715 28 215 1.6 3.2 0.00 0.00 0.00 70 1014.5
20260509164211 28 328 0.0 3.2 0.00 0.00 0.00 70 1014.6
20260509163709 28 251 0.0 3.2 0.00 0.00 0.00 72 1014.5
20260509163206 28 204 1.6 3.2 0.00 0.00 0.00 71 1014.6
20260509162703 28 144 1.6 3.2 0.00 0.00 0.00 71 1014.7
20260509162158 27 128 1.6 1.6 0.00 0.00 0.00 72 1014.3
20260509161654 28 252 3.2 4.8 0.00 0.00 0.00 71 1014.7
20260509161150 27 257 0.0 3.2 0.00 0.00 0.00 72 1014.6
20260509160646 28 329 1.6 3.2 0.00 0.00 0.00 71 1014.7
20260509160141 27 260 0.0 1.6 0.00 0.00 0.00 73 1014.6
20260509155638 27 318 0.0 1.6 0.00 0.00 0.00 73 1014.8
20260509155134 27 333 0.0 1.6 0.00 0.00 0.00 75 1014.6
20260509154630 26 250 0.0 3.2 0.00 0.00 0.00 76 1014.5
20260509154127 26 214 1.6 3.2 0.00 0.00 0.00 76 1014.4
20260509153624 26 246 1.6 3.2 0.00 0.00 0.00 77 1014.2
20260509153121 26 194 1.6 1.6 0.00 0.00 0.00 77 1014.0
20260509152617 26 10 0.0 0.0 0.00 0.00 0.00 77 1014.2
20260509152114 26 173 0.0 1.6 0.00 0.00 0.00 78 1014.4
20260509151610 26 169 0.0 1.6 0.00 0.00 0.00 79 1014.5
20260509151108 26 306 0.0 3.2 0.00 0.00 0.00 78 1014.2